Zurück zum Katalog

NOAA 16 DEB

AktivSSO
NORAD 41069·DEBRIS·🇺🇸 United States

Gestartet Sep 21, 2000 von Vandenberg Space Force Base

Loading…

Nächste Überflüge (nächste 24 Stunden)

TLE

AktuellSource: Space-Track

Epoche: Sep 14, 2026, 14:17 UTC

1 41069U 00055AC  26257.59573080  .00001224  00000-0  35278-3 0  9996
2 41069  98.6088  11.3491 0106311 269.8006  89.1001 14.43374995565524

Verfolge NOAA 16 DEB in Echtzeit mit AllMySat

Download on the App Store